This demonstration page uses our WeatherBlox Daily Observations layout. Learn more.

Left ArrowRight Arrow

34.74481, -87.66753

Hourly Observations for July 17, 2020

Temp ( °F °C ) Dew Point ( °F °C ) Humidity (%) Winds ( mph kmh ) Pressure ( in mb ) Visibility ( mi km ) Precip ( " mm )
12:53 am 00:53 Clear 78 25.6 74 23.3 87 87 Calm 30.11 1020 10 16 0.00 0.00
1:53 am 01:53 Clear 77 25 74 23.3 90 90 Calm 30.11 1020 10 16 0.00 0.00
2:53 am 02:53 Clear 75 23.9 72 22.2 90 90 SE 5 7 30.10 1019 10 16 0.00 0.00
3:53 am 03:53 Clear 75 23.9 72 22.2 90 90 Calm 30.11 1020 10 16 0.00 0.00
4:53 am 04:53 Clear 75 23.9 72 22.2 90 90 Calm 30.12 1020 10 16 0.00 0.00
5:53 am 05:53 Sunny 74 23.3 71 21.7 91 91 Calm 30.14 1021 8 13 0.00 0.00
6:13 am 06:13 Sunny with Mist and Fog 74 23.3 71 21.7 91 91 Calm 30.16 1021 2 3 0.00 0.00
6:21 am 06:21 Sunny with Mist and Fog 74 23.3 71 21.7 91 91 Calm 30.16 1021 3 5 0.00 0.00
6:53 am 06:53 Sunny 76 24.4 73 22.8 91 91 Calm 30.16 1021 10 16 0.00 0.00
7:53 am 07:53 Sunny 80 26.7 74 23.3 82 82 Calm 30.18 1022 10 16 0.00 0.00
8:53 am 08:53 Sunny 83 28.3 74 23.3 74 74 S 3 6 30.18 1022 10 16 0.00 0.00
9:53 am 09:53 Mostly Sunny 87 30.6 74 23.3 65 65 WSW 7 11 30.18 1022 10 16 0.00 0.00
10:53 am 10:53 Partly Cloudy 88 31.1 73 22.8 61 61 Calm 30.18 1022 10 16 0.00 0.00
11:53 am 11:53 Mostly Sunny 90 32.2 72 22.2 56 56 VRB 3 6 30.16 1021 10 16 0.00 0.00
12:53 pm 12:53 Partly Cloudy 92 33.3 72 22.2 52 52 VRB 3 6 30.14 1021 10 16 0.00 0.00
1:53 pm 13:53 Partly Cloudy 92 33.3 72 22.2 52 52 SSW 9 15 30.11 1020 10 16 0.00 0.00
2:53 pm 14:53 Partly Cloudy 93 33.9 72 22.2 50 50 S 7 11 30.10 1019 10 16 0.00 0.00
3:53 pm 15:53 Mostly Sunny 94 34.4 71 21.7 48 48 WSW 3 6 30.09 1019 10 16 0.00 0.00
4:53 pm 16:53 Mostly Sunny 95 35 71 21.7 46 46 SSW 3 6 30.08 1019 10 16 0.00 0.00
5:53 pm 17:53 Mostly Sunny 93 33.9 71 21.7 49 49 WSW 5 7 30.07 1018 10 16 0.00 0.00
6:53 pm 18:53 Partly Cloudy 90 32.2 74 23.3 59 59 NW 5 7 30.09 1019 10 16 0.00 0.00
7:53 pm 19:53 Sunny 86 30 76 24.4 72 72 NNE 3 6 30.09 1019 10 16 0.00 0.00
8:53 pm 20:53 Clear 83 28.3 77 25 82 82 Calm 30.09 1019 10 16 0.00 0.00
9:53 pm 21:53 Clear 81 27.2 76 24.4 85 85 Calm 30.09 1019 10 16 0.00 0.00
10:53 pm 22:53 Clear 79 26.1 76 24.4 90 90 SE 3 6 30.09 1019 10 16 0.00 0.00
11:53 pm 23:53 Clear 79 26.1 76 24.4 90 90 SE 3 6 30.09 1019 10 16 0.00 0.00

Powered by AerisWeather